sat.trackr.live / text

‹ back to catalog

KUIPER-00499

NORAD 68881 · 2026-095T

PAYLOAD ACTIVE UNKNOWN

§ Identity

Operator
Country
US
Launch date
2026-04-28
Launch site
AFETR
Launch vehicle
Mass (kg)
RCS (m²)

External: N2YO · Heavens-Above · Gunter

§ Orbital elements

Epoch: 2026-09-20T01:31:42.344256Z

Period
97.30 min
Inclination
51.8983°
Eccentricity
0.0001139
Mean motion
14.79955297 rev/d
Perigee alt
628.7 km
Apogee alt
630.3 km
Semi-major
7,007.6 km
B*
5.8378e-4
RAAN
173.6680°
Arg perigee
75.2039°
Mean anomaly
284.9050°
Rev number
2,190

§ Raw data

KUIPER-004991 68881U 26095T   26263.06368454  .00004234  00000+0  58378-3 0  99942 68881  51.8983 173.6680 0001139  75.2039 284.9050 14.79955297 21906

JSON: /api/v1/satellites/68881 · /tle

For live sub-satellite position, see the globe view (requires WebGL).

§ Visibility from observer

Set your observer location to see the next 7 days of passes ≥ 10°. The values pass through the URL so the page stays shareable.

No JS? Fill the form by hand. The geolocation button needs JavaScript.